Flag for Norway Weather past 2 weeks in Sandefjord, Norway

Now
54 °F

Fog.


Feels Like: 54 °F
Forecast: 53 / 56 °F
Wind: 2 mph from North

Location: Torp

Current Time: Aug 31, 2015 at 4:46:33 AM

Latest Report: Aug 31, 2015 at 3:50 AM


Visibility: 0 mi

Pressure: 30.04 "Hg

Humidity: 100%

Dew point: 54 °F

Location of SandefjordLocation

Historic Weather in Sandefjord — Graph

°F

Sandefjord temperature yesterday

Maximum temperature yesterday: 68 °F (at 1:20 PM)
Minimum temperature yesterday: 54 °F (at 4:20 AM)
Average temperature yesterday: 60 °F

Past Weeks' High & Low Weather Summary

 TemperatureHumidityPressure
High75 °F (Aug 23, 3:50 PM)100% (Aug 19, 5:20 AM)30.36 "Hg (Aug 19, 5:20 AM)
Low48 °F (Aug 21, 6:20 AM)38% (Aug 19, 5:50 PM)29.50 "Hg (Aug 27, 5:20 PM)
Average61 °F77%30.05 "Hg
* Reported Aug 16 3:20 AM — Aug 31 3:50 AM, Sandefjord, Weather by CustomWeather, © 2015

Note: Actual official high and low records may vary slightly from our data, if they occured in-between our weather recording intervals... More about our weather records

Advertising

Sandefjord weather history for previous 24 hours

 ConditionsComfort  
Time TempWeatherWind HumidityBarometerVisibility
3:50 AM
Mon, Aug 31
54 °FFog.2 mph100%30.04 "Hg0 mi
3:20 AM55 °FCool.3 mph100%30.04 "Hg3 mi
2:50 AM54 °FFog.2 mph100%30.04 "Hg0 mi
2:20 AM55 °FLight fog.2 mph100%30.07 "Hg1 mi
1:50 AM55 °FFog.2 mph100%30.07 "Hg0 mi
1:20 AM57 °FFog.1 mph100%30.07 "Hg0 mi
12:50 AM55 °FFog.1 mph100%30.07 "Hg1 mi
12:20 AM57 °FFog.3 mph100%30.07 "Hg1 mi
11:50 PM
Sun, Aug 30
57 °FClear.3 mph100%30.07 "Hg4 mi
11:20 PM57 °FClear.5 mph100%30.07 "Hg10 mi
10:50 PM59 °FClear.7 mph94%30.07 "Hg10 mi
10:20 PM59 °FClear.7 mph94%30.07 "Hg10 mi
9:20 PM59 °FSunny.7 mph94%30.07 "Hg10 mi
8:50 PM59 °FSunny.8 mph94%30.07 "Hg10 mi
8:20 PM61 °FSunny.10 mph88%30.07 "Hg10 mi
7:50 PM61 °FSunny.9 mph83%30.07 "Hg10 mi
7:20 PM63 °FSunny.13 mph77%30.07 "Hg10 mi
6:50 PM64 °FSunny.13 mph73%30.07 "Hg10 mi
6:20 PM64 °FSunny.14 mph73%30.07 "Hg10 mi
5:50 PM64 °FPassing clouds.15 mph73%30.07 "HgN/A
5:20 PM66 °FPassing clouds.13 mph68%30.07 "HgN/A
4:50 PM66 °FPassing clouds.13 mph64%30.07 "HgN/A
4:20 PM66 °FScattered clouds.14 mph64%30.07 "HgN/A
3:50 PM66 °FScattered clouds.14 mph60%30.07 "HgN/A
3:20 PM68 °FScattered clouds.12 mph53%30.07 "HgN/A
2:50 PM68 °FScattered clouds.9 mph53%30.07 "HgN/A
2:20 PM66 °FScattered clouds.6 mph52%30.07 "HgN/A
1:50 PM66 °FScattered clouds.9 mph49%30.07 "HgN/A
1:20 PM68 °FScattered clouds.8 mph49%30.07 "HgN/A
12:50 PM66 °FPassing clouds.8 mph52%30.07 "HgN/A
12:20 PM66 °FPassing clouds.8 mph52%30.07 "HgN/A
11:50 AM64 °FPassing clouds.9 mph56%30.07 "HgN/A
11:20 AM64 °FSunny.10 mph56%30.07 "Hg10 mi
10:50 AM63 °FSunny.9 mph59%30.07 "Hg10 mi
10:20 AM63 °FSunny.8 mph64%30.07 "Hg10 mi
9:50 AM61 °FSunny.9 mph72%30.07 "Hg10 mi
9:20 AM59 °FSunny.8 mph82%30.07 "Hg10 mi
8:50 AM59 °FSunny.6 mph82%30.07 "Hg10 mi
8:20 AM57 °FPassing clouds.3 mph88%30.04 "HgN/A
7:50 AM55 °FPassing clouds.6 mph88%30.04 "HgN/A
7:20 AM54 °FSunny.5 mph94%30.04 "Hg10 mi
6:50 AM54 °FClear.8 mph94%30.04 "Hg10 mi
6:20 AM54 °FClear.5 mph94%30.04 "Hg10 mi
5:50 AM54 °FPassing clouds.6 mph94%30.04 "HgN/A
5:20 AM54 °FPassing clouds.8 mph94%30.01 "HgN/A
4:50 AM54 °FPassing clouds.6 mph94%30.04 "HgN/A
4:20 AM54 °FCool.5 mph94%30.04 "HgN/A
Weather by CustomWeather, © 2015

See weather overviewHow to use our weather pages